Temp
17 17 17 18 18 18 18 19 19 19 19 19 20 20 20 22 23 23 24 24 24 24 23 23 23 23 24 23 24 24 27 27 27 27 27 26 28 25 25 24 23 23 22 22 22
16 17 17 18 18 18 18 19 18 19 19 19 19 20 20 22 23 23 23 23 24 23 23 23 23 23 23 23 23 25 27 27 27 27 29 28 28 27 26 25 24 22 22 22 22
15 15 16 16 17 18 18 18 18 19 19 19 19 20 20 21 23 23 23 23 23 23 23 23 23 23 23 23 24 23 27 26 27 27 27 28 27 27 27 27 26 24 21 22 21
14 14 15 16 16 17 17 18 18 18 19 19 19 20 20 21 23 23 23 22 22 23 23 22 22 23 24 25 23 26 25 26 27 26 27 28 27 27 27 28 27 25 24 23 21
13 14 14 14 15 16 17 17 18 18 19 19 19 20 20 20 22 23 23 22 22 22 22 22 22 22 25 25 24 25 26 26 26 26 26 25 26 28 26 24 27 25 23 23 21
12 12 13 14 14 15 16 17 18 18 19 19 19 19 19 19 22 22 22 23 22 22 22 22 22 23 24 24 26 25 26 27 26 28 26 27 27 25 25 25 26 25 23 21 22
11 12 12 12 13 14 15 16 17 18 18 19 19 19 19 20 22 22 23 22 22 22 22 22 22 23 24 25 24 25 27 27 28 28 29 26 29 28 24 23 25 24 22 22 22
10 10 11 12 13 14 15 16 17 17 18 19 19 19 19 21 22 22 22 23 22 22 21 22 22 23 23 23 24 26 26 28 29 27 26 26 31 29 24 25 24 22 21 22 21
9 9 10 11 12 13 15 16 16 18 18 18 19 19 19 20 21 21 22 22 22 22 21 22 22 22 23 25 25 25 28 27 28 26 28 28 30 29 23 25 26 23 22 22 22
9 9 9 11 12 13 14 15 16 17 18 18 17 17 20 20 21 21 22 22 22 22 21 22 22 24 23 25 25 26 26 26 28 28 28 29 29 30 24 24 26 25 23 23 22
9 9 9 9 10 12 14 15 15 15 16 17 16 16 19 20 20 21 21 21 22 22 23 22 24 24 25 24 25 25 25 25 26 26 27 27 27 29 26 23 24 25 24 24 23
8 8 8 9 9 11 12 13 12 10 11 17 18 17 18 18 18 21 21 22 22 23 22 23 23 24 23 23 24 24 25 26 25 25 25 26 28 25 25 25 24 24 23 23 24
7 8 8 8 9 10 11 12 11 11 10 14 18 18 18 18 19 20 21 21 23 22 23 23 24 23 24 23 24 24 25 25 26 25 25 26 28 25 24 23 22 21 21 22 23
7 7 8 8 9 10 11 11 11 12 15 17 17 17 18 20 18 22 21 22 22 23 22 23 23 23 23 24 24 24 25 25 25 26 27 24 28 25 23 23 22 21 19 18 19
6 7 7 7 8 9 10 11 12 12 16 19 18 18 18 20 21 20 22 22 23 22 23 24 22 22 23 25 24 26 23 24 25 26 25 25 28 25 23 23 22 19 18 17 17
6 6 7 7 8 9 10 12 12 15 15 19 19 19 18 19 21 19 21 22 22 23 22 24 22 24 26 24 24 24 24 23 23 25 26 25 26 25 21 19 20 20 18 17 16
6 6 6 6 7 9 10 11 14 14 17 19 19 19 20 20 21 22 22 22 23 21 22 23 24 24 24 24 23 24 24 25 25 25 26 23 25 22 20 20 19 19 18 17 16
7 7 7 7 6 8 9 12 13 16 17 18 19 20 19 21 21 22 22 22 22 23 22 22 22 24 25 25 26 24 25 27 24 25 26 23 23 22 21 20 19 18 17 16 16
7 7 7 8 6 7 9 12 15 15 17 18 19 19 19 21 22 22 22 23 23 23 23 22 23 24 24 25 26 23 25 24 23 21 25 22 21 21 21 21 20 18 17 16 15
5 5 7 7 6 7 8 10 12 14 16 17 17 18 19 21 21 22 22 23 22 24 24 22 23 25 24 25 23 25 24 25 25 24 23 22 22 23 22 21 20 19 17 15 15
4 5 6 5 6 6 6 10 12 14 15 16 16 17 18 17 20 22 22 21 24 22 24 23 23 24 24 25 26 24 25 22 24 23 25 23 23 22 21 20 19 17 15 15 15
5 6 6 5 6 7 7 9 12 14 14 16 16 16 17 17 18 21 21 24 23 23 23 23 22 24 24 23 23 24 26 25 27 22 21 24 23 20 19 19 16 16 15 14 14
5 5 5 4 7 8 9 11 12 14 15 15 15 16 16 16 16 18 20 22 21 23 23 21 21 23 23 24 23 24 22 21 21 22 22 25 21 19 18 17 16 15 14 14 14
5 5 4 4 5 7 8 10 11 13 13 14 15 16 17 17 17 17 20 21 21 23 22 23 20 23 24 24 24 23 22 22 24 25 23 24 20 19 19 19 17 14 13 13 13
5 5 5 4 5 6 8 9 11 12 14 15 15 16 16 16 17 17 19 21 20 18 20 23 23 22 21 22 22 21 23 23 24 23 25 23 21 20 19 18 16 15 14 13 13
5 5 4 6 5 7 8 9 11 13 13 15 14 16 16 15 16 16 17 18 21 20 21 18 21 21 20 21 22 20 20 21 21 20 21 21 18 18 15 15 14 14 14 14 14
4 5 4 6 7 6 9 9 12 13 13 14 15 16 16 17 17 16 15 16 18 19 20 21 20 22 21 21 22 22 18 19 18 18 20 20 19 15 15 14 14 13 12 12 11
Height
1544 1541 1540 1538 1537 1534 1534 1532 1530 1528 1526 1523 1519 1516 1512 1508 1505 1501 1500 1502 1501 1503 1506 1508 1510 1512 1514 1515 1516 1516 1518 1521 1519 1518 1515 1514 1512 1514 1514 1516 1518 1519 1520 1522 1524
1540 1539 1537 1535 1535 1532 1531 1530 1529 1527 1524 1521 1518 1515 1511 1507 1504 1503 1503 1502 1502 1504 1506 1508 1510 1512 1515 1516 1517 1517 1519 1517 1516 1514 1512 1512 1512 1513 1513 1514 1516 1517 1518 1519 1522
1535 1535 1534 1532 1531 1530 1529 1528 1527 1525 1522 1519 1517 1515 1511 1507 1504 1505 1504 1504 1504 1505 1507 1509 1511 1513 1514 1516 1517 1517 1516 1515 1514 1514 1512 1511 1510 1510 1509 1509 1508 1510 1514 1517 1520
1533 1531 1529 1528 1528 1527 1527 1526 1524 1522 1519 1517 1515 1514 1510 1508 1508 1504 1504 1504 1505 1506 1507 1508 1511 1513 1512 1513 1515 1516 1516 1515 1513 1512 1512 1508 1507 1505 1505 1505 1505 1507 1511 1514 1518
1528 1528 1526 1525 1524 1524 1524 1522 1521 1519 1517 1515 1513 1511 1509 1507 1504 1503 1503 1503 1504 1506 1507 1508 1510 1511 1510 1512 1514 1514 1513 1514 1512 1510 1509 1507 1504 1503 1503 1505 1506 1506 1509 1513 1516
1526 1523 1523 1522 1521 1520 1519 1518 1518 1515 1513 1512 1511 1509 1509 1507 1501 1501 1502 1502 1503 1504 1506 1508 1509 1510 1510 1511 1511 1511 1511 1510 1510 1508 1506 1505 1502 1502 1502 1502 1505 1505 1509 1512 1516
1521 1521 1519 1519 1518 1516 1515 1515 1513 1512 1510 1509 1509 1507 1505 1502 1498 1499 1500 1501 1502 1502 1504 1506 1508 1510 1509 1509 1510 1510 1510 1508 1507 1505 1503 1504 1500 1499 1501 1502 1503 1505 1508 1511 1515
1517 1517 1516 1515 1513 1512 1511 1510 1509 1508 1506 1506 1505 1504 1500 1497 1495 1496 1497 1498 1500 1501 1504 1506 1508 1509 1508 1509 1509 1508 1508 1510 1503 1504 1504 1505 1501 1497 1498 1500 1503 1504 1507 1510 1513
1511 1511 1511 1511 1509 1507 1506 1505 1504 1502 1502 1502 1502 1502 1495 1492 1492 1493 1494 1497 1498 1501 1503 1505 1507 1508 1508 1507 1510 1510 1509 1510 1505 1503 1502 1502 1500 1497 1499 1500 1499 1501 1504 1507 1511
1507 1507 1506 1506 1505 1504 1502 1501 1499 1498 1498 1499 1498 1503 1492 1491 1489 1490 1492 1494 1497 1499 1504 1505 1506 1505 1507 1505 1513 1512 1511 1509 1505 1504 1501 1501 1500 1497 1499 1500 1497 1498 1501 1504 1506
1504 1504 1503 1504 1504 1504 1502 1501 1501 1500 1496 1493 1492 1489 1486 1488 1488 1488 1490 1492 1495 1499 1499 1503 1503 1502 1503 1504 1504 1507 1510 1511 1507 1503 1504 1503 1503 1497 1499 1500 1498 1500 1501 1500 1500
1501 1501 1501 1502 1503 1502 1502 1501 1501 1504 1496 1487 1485 1483 1483 1486 1488 1486 1489 1492 1492 1495 1498 1502 1501 1500 1502 1505 1505 1507 1510 1509 1506 1505 1507 1503 1499 1500 1501 1500 1501 1502 1504 1504 1506
1498 1498 1498 1499 1500 1500 1501 1502 1501 1501 1498 1478 1473 1472 1474 1480 1481 1481 1485 1487 1488 1493 1494 1497 1497 1497 1498 1503 1505 1507 1507 1509 1508 1506 1504 1503 1500 1504 1504 1504 1503 1503 1503 1503 1503
1496 1496 1496 1497 1501 1497 1498 1500 1500 1500 1493 1472 1467 1464 1466 1471 1474 1473 1480 1484 1486 1488 1494 1494 1494 1497 1499 1501 1501 1507 1500 1501 1504 1508 1508 1505 1508 1503 1506 1505 1505 1505 1504 1503 1500
1494 1494 1493 1495 1496 1498 1500 1499 1499 1499 1498 1463 1461 1461 1462 1465 1463 1465 1473 1480 1480 1485 1489 1489 1492 1496 1499 1495 1497 1496 1497 1499 1500 1503 1507 1506 1505 1505 1505 1503 1503 1507 1506 1503 1499
1493 1492 1492 1493 1494 1496 1497 1497 1499 1500 1493 1460 1457 1458 1462 1462 1460 1463 1469 1477 1479 1483 1486 1483 1487 1488 1486 1491 1492 1494 1497 1501 1506 1504 1511 1507 1506 1511 1518 1519 1512 1510 1507 1505 1502
1492 1491 1492 1492 1494 1494 1495 1497 1498 1492 1466 1459 1456 1455 1456 1457 1458 1457 1462 1470 1474 1488 1489 1486 1484 1483 1485 1490 1493 1493 1497 1507 1512 1512 1510 1511 1507 1519 1519 1519 1518 1514 1511 1508 1506
1489 1489 1489 1490 1491 1493 1495 1496 1488 1468 1462 1457 1454 1453 1455 1452 1454 1455 1459 1466 1470 1472 1484 1489 1495 1480 1477 1479 1482 1490 1488 1491 1515 1515 1507 1508 1519 1522 1518 1519 1519 1516 1514 1513 1509
1485 1486 1486 1487 1491 1493 1496 1488 1468 1469 1462 1459 1454 1454 1452 1448 1447 1451 1454 1458 1461 1464 1477 1486 1485 1471 1472 1473 1475 1488 1491 1485 1499 1515 1504 1518 1519 1517 1517 1516 1518 1517 1516 1515 1512
1484 1484 1484 1486 1489 1492 1495 1484 1476 1469 1465 1461 1461 1454 1453 1447 1449 1449 1453 1451 1459 1461 1464 1473 1482 1468 1471 1472 1477 1473 1478 1490 1491 1512 1521 1523 1520 1514 1515 1516 1518 1518 1517 1517 1515
1484 1485 1483 1484 1488 1490 1493 1484 1478 1470 1469 1465 1461 1459 1456 1457 1450 1444 1447 1451 1450 1458 1462 1468 1473 1474 1472 1471 1471 1478 1478 1488 1488 1498 1501 1520 1515 1509 1513 1517 1518 1520 1519 1518 1518
1483 1484 1483 1483 1489 1486 1483 1480 1479 1471 1471 1467 1463 1461 1459 1460 1453 1446 1445 1441 1445 1451 1463 1465 1471 1475 1471 1469 1469 1469 1469 1473 1480 1506 1507 1499 1512 1511 1515 1518 1521 1522 1521 1521 1520
1483 1483 1482 1483 1482 1481 1480 1476 1474 1473 1468 1466 1465 1464 1462 1461 1462 1450 1446 1441 1444 1449 1457 1464 1473 1477 1476 1473 1471 1472 1478 1481 1484 1488 1499 1497 1513 1512 1516 1519 1522 1523 1523 1522 1521
1484 1483 1484 1483 1482 1480 1479 1475 1473 1471 1469 1471 1467 1464 1462 1460 1458 1455 1446 1443 1444 1445 1450 1456 1472 1467 1472 1468 1467 1475 1477 1478 1475 1484 1495 1490 1506 1509 1514 1516 1521 1525 1525 1524 1523
1483 1480 1480 1480 1480 1479 1478 1474 1472 1468 1465 1467 1462 1463 1465 1464 1458 1455 1451 1447 1446 1449 1451 1453 1464 1468 1471 1467 1469 1476 1476 1477 1477 1482 1483 1487 1496 1504 1512 1516 1521 1524 1526 1526 1525
1481 1480 1478 1476 1476 1476 1475 1469 1464 1463 1464 1458 1463 1461 1464 1466 1465 1463 1462 1457 1443 1449 1450 1455 1466 1466 1477 1473 1472 1482 1483 1483 1482 1486 1487 1490 1506 1508 1516 1519 1522 1524 1526 1527 1526
1478 1477 1477 1471 1469 1473 1467 1466 1460 1460 1458 1460 1460 1462 1461 1460 1460 1457 1455 1452 1452 1450 1449 1452 1461 1465 1481 1477 1476 1484 1490 1487 1489 1491 1488 1496 1499 1510 1515 1519 1522 1525 1526 1525 1523
Wind_Speed
18 19 19 18 19 19 20 20 20 21 23 24 24 25 28 28 23 10 5 2 8 12 19 17 13 10 9 6 4 3 2 0 1 1 3 5 3 5 6 8 5 8 4 4 24
20 20 20 20 20 21 21 21 21 22 22 24 24 25 27 27 13 12 7 4 7 10 15 18 14 12 5 4 3 2 2 3 1 2 3 3 6 6 7 7 8 8 8 6 26
22 21 21 21 22 21 21 21 22 21 22 24 25 24 25 25 6 4 9 2 6 8 14 14 11 11 4 4 5 4 3 3 3 9 9 6 7 6 10 8 12 16 16 17 28
19 22 22 22 22 22 22 22 22 22 22 24 24 25 24 21 1 2 7 1 6 7 10 13 12 8 6 6 6 4 6 5 4 5 6 9 7 5 16 3 3 5 12 20 30
23 21 22 22 23 23 23 22 21 22 21 23 23 25 24 17 8 3 4 2 7 10 10 12 12 6 7 5 6 5 4 8 9 11 11 9 13 9 8 5 8 5 14 19 27
22 24 23 23 23 24 23 22 21 21 21 22 22 23 21 11 5 5 3 1 4 9 14 13 9 8 4 3 8 5 5 6 6 9 7 5 4 5 4 9 10 8 13 19 28
21 23 24 23 23 24 24 23 21 21 22 20 21 22 22 21 11 11 8 4 3 5 12 14 3 6 4 2 3 2 4 4 7 3 4 2 4 5 2 11 13 11 14 18 28
23 21 22 24 24 24 24 23 21 21 21 20 20 18 14 17 13 13 11 9 4 6 8 13 6 3 3 1 1 2 2 5 2 1 3 4 4 1 6 13 13 14 16 19 25
22 22 23 22 23 25 25 23 21 20 19 18 14 9 10 8 5 3 4 6 4 6 9 10 6 2 3 4 2 1 6 5 4 1 4 4 3 4 4 12 15 18 18 19 23
21 23 23 22 22 23 24 23 17 14 12 11 12 7 13 5 2 5 4 10 4 12 8 4 2 3 2 6 9 5 5 3 4 3 2 3 9 9 6 13 19 19 19 19 21
19 20 22 20 19 19 21 15 4 5 5 8 4 8 6 5 9 2 2 16 11 8 8 4 7 10 7 5 2 3 2 2 3 1 4 3 6 10 8 13 18 16 16 21 26
18 17 19 19 15 14 13 2 5 3 10 16 23 29 31 21 7 6 8 9 7 9 6 5 13 7 5 6 5 4 4 6 4 6 3 3 8 5 7 8 10 12 14 17 20
16 15 17 12 13 11 4 3 3 9 6 13 20 19 22 24 14 15 12 8 9 8 9 9 0 8 10 8 7 4 9 6 5 3 4 5 3 4 6 11 14 12 9 12 18
14 13 13 8 9 7 2 6 4 10 4 6 5 6 15 16 8 30 19 10 4 14 8 5 4 5 6 7 7 7 11 11 8 4 5 2 10 3 9 4 15 19 18 17 16
13 11 7 6 6 3 3 2 5 1 5 2 4 4 10 19 10 17 28 12 14 8 7 7 8 9 8 9 12 5 3 11 8 7 3 4 4 7 9 9 20 21 21 19 16
12 9 7 8 10 8 7 5 1 3 9 2 5 6 8 14 5 11 16 13 7 7 3 10 3 5 6 4 13 11 4 4 3 3 6 4 3 7 7 10 13 18 21 21 20
11 8 8 9 7 2 3 3 4 7 3 3 2 5 8 10 6 11 18 17 12 11 13 6 9 4 5 3 4 8 6 4 6 5 2 3 4 4 4 6 8 13 17 18 17
12 10 9 14 9 6 3 4 11 5 10 3 2 4 8 10 7 10 19 17 10 9 8 11 8 12 11 14 6 10 8 4 5 6 5 3 4 4 2 4 10 11 13 15 17
13 12 13 14 14 5 2 9 10 5 2 5 10 5 7 8 7 10 18 21 16 12 7 10 6 4 7 5 9 6 7 2 6 2 4 3 3 3 2 4 10 12 14 17 17
8 7 12 8 11 5 3 6 5 3 7 4 3 4 2 9 9 12 16 16 14 14 8 7 6 4 5 6 5 4 10 5 1 7 3 4 4 5 4 4 7 12 15 16 16
3 3 2 7 11 6 3 6 8 16 9 4 3 4 4 5 6 14 16 5 19 13 13 6 2 4 5 5 9 4 4 5 4 2 5 6 4 5 3 3 5 10 12 14 15
3 2 4 12 8 4 7 7 8 18 12 4 3 3 3 9 4 7 13 6 21 21 12 8 1 2 2 3 2 1 5 5 5 5 3 1 5 5 4 3 4 7 9 11 12
5 2 1 17 4 8 5 8 11 13 8 3 3 5 5 7 5 2 4 6 17 15 16 9 3 4 5 5 3 2 3 4 7 3 6 7 5 6 7 8 7 8 8 10 11
2 1 2 10 6 3 10 11 12 20 16 13 7 9 7 10 1 6 5 2 12 20 21 16 3 3 6 4 4 5 6 7 4 4 7 4 10 12 11 9 10 9 9 9 10
5 3 5 3 9 10 5 3 14 9 17 9 8 12 3 5 11 4 6 5 5 11 8 7 8 4 3 5 5 5 5 7 4 6 6 9 13 14 12 6 9 8 7 7 7
3 2 3 6 5 16 11 8 14 17 11 17 16 10 5 5 7 18 18 6 3 3 9 2 6 5 4 7 9 9 8 8 9 8 9 14 11 8 10 12 9 6 5 4 5
5 5 5 5 7 8 13 14 14 8 14 22 13 10 15 15 15 21 21 27 15 4 6 7 7 7 5 8 7 7 2 3 5 3 12 8 7 13 10 8 6 3 3 6 8
Wind_Direction
301 304 309 312 315 319 321 322 328 331 333 336 338 342 341 342 350 17 50 90 171 180 184 189 185 172 162 161 124 108 105 55 153 102 49 156 178 174 193 162 183 178 165 216 182
296 297 299 302 305 309 314 315 321 324 327 331 334 338 341 343 1 35 41 83 156 176 183 191 182 166 159 158 153 153 191 189 210 207 311 274 248 190 209 189 184 170 197 184 179
299 298 297 298 300 301 304 307 313 318 322 326 329 334 338 341 6 39 22 82 156 158 187 184 183 168 151 165 176 157 203 192 234 244 285 296 274 216 218 226 216 201 186 180 181
296 300 299 296 296 296 298 300 306 311 317 321 324 330 334 336 356 317 346 176 187 179 176 186 180 167 171 185 181 205 214 205 278 253 280 285 293 254 213 263 202 215 207 184 187
297 294 296 299 297 296 294 295 298 304 310 315 320 325 333 319 298 294 316 233 205 206 200 192 175 161 191 186 159 218 213 211 251 280 273 274 261 260 235 213 235 196 188 192 192
292 296 296 295 297 297 296 296 294 297 302 308 314 318 325 297 295 287 354 222 209 215 211 200 205 179 164 193 207 196 224 268 279 264 267 259 307 181 87 188 189 189 191 193 196
286 288 293 297 296 296 296 296 296 295 294 299 306 310 305 285 273 262 261 261 227 221 216 199 214 194 170 187 231 190 255 255 228 270 280 240 230 233 182 177 179 186 193 198 201
284 286 285 291 296 297 295 298 298 293 290 294 297 301 279 282 271 262 252 234 226 204 199 196 183 236 207 194 48 213 233 254 111 262 196 233 224 340 205 186 184 187 198 201 208
291 288 289 289 293 298 299 301 305 295 290 288 287 284 263 258 255 167 230 198 192 187 146 174 183 219 168 168 177 49 239 218 200 65 175 249 259 29 218 217 208 200 202 207 213
291 288 288 288 293 296 301 311 314 295 277 271 263 267 241 200 189 290 230 184 170 170 181 187 161 195 158 192 213 202 208 218 204 130 59 230 270 296 258 229 237 220 208 213 218
301 287 284 287 294 295 308 339 303 268 247 224 216 246 246 251 290 191 168 168 143 162 179 174 212 212 203 199 151 168 193 249 283 271 303 185 274 294 320 246 251 253 233 224 233
301 303 285 287 294 295 324 21 70 346 300 265 260 259 251 261 289 253 191 167 168 176 141 169 227 198 167 167 160 173 220 242 262 293 261 227 289 35 17 319 296 279 266 263 269
305 298 298 291 297 293 318 221 262 332 260 281 251 243 237 230 226 238 182 181 171 170 184 212 88 181 177 173 182 196 228 222 245 291 250 270 212 48 9 41 42 26 346 293 280
311 304 300 296 291 278 270 189 240 320 281 260 223 240 193 195 225 228 209 176 164 193 166 223 172 137 177 203 205 238 212 227 228 236 249 320 258 41 354 33 21 13 4 349 318
318 307 280 272 256 296 112 192 304 192 287 144 176 153 184 182 149 198 204 200 190 165 181 184 171 174 207 223 194 224 178 214 213 218 247 168 240 2 359 359 7 15 17 11 8
321 307 249 266 255 269 274 275 271 207 246 276 154 166 157 213 197 134 167 191 165 153 215 221 186 186 196 161 189 147 116 93 108 174 215 100 245 41 9 342 358 12 21 19 20
319 303 243 249 270 264 234 207 184 222 340 182 177 175 190 186 194 173 171 180 178 173 204 198 210 201 189 213 192 193 173 160 189 188 161 38 130 42 7 9 355 359 10 18 29
302 303 266 231 254 251 292 208 214 205 230 321 317 326 194 166 209 178 170 180 191 162 164 202 205 205 189 213 206 183 200 195 177 190 140 108 130 99 356 340 354 20 29 32 42
291 284 269 247 233 262 220 215 210 221 313 280 302 253 200 205 202 179 187 190 186 178 163 184 241 181 195 159 181 157 201 79 107 69 140 103 107 218 260 348 23 42 53 49 41
298 306 298 280 194 193 218 251 268 307 342 344 279 1 224 198 193 195 175 190 181 191 178 182 200 181 151 130 62 224 140 158 111 165 146 140 168 136 165 8 32 49 51 44 43
259 314 302 163 165 150 204 241 264 276 311 334 339 318 15 1 270 196 183 160 184 184 203 159 249 136 160 207 166 149 168 69 100 3 198 158 176 150 163 15 33 39 39 42 42
162 212 341 173 194 203 208 182 219 276 269 300 298 301 7 342 316 216 185 203 191 167 187 193 143 192 102 343 265 30 162 158 201 176 68 321 127 141 136 90 52 51 51 48 46
169 223 140 176 224 232 250 226 218 244 266 296 292 35 6 325 323 276 214 207 168 168 171 172 208 165 141 143 133 153 102 100 102 114 166 208 152 153 145 125 98 81 59 47 44
196 215 137 210 261 294 229 238 222 227 256 269 292 301 327 329 288 313 341 37 197 185 184 151 147 198 179 136 121 137 146 154 129 181 162 185 151 169 168 143 115 89 72 59 46
201 226 206 211 236 238 255 282 223 235 223 246 249 247 317 321 333 36 24 333 101 152 132 154 184 155 44 125 109 104 139 156 153 146 198 167 167 164 168 143 101 99 83 61 43
229 204 229 277 236 216 228 228 207 224 239 222 240 239 292 275 280 300 308 284 226 153 166 140 158 129 72 107 131 104 91 117 118 117 86 132 135 134 129 119 103 88 78 58 36
231 280 319 238 216 197 225 226 225 228 244 237 254 265 258 280 295 302 288 252 258 301 148 153 140 156 142 139 151 124 53 72 102 98 146 162 150 147 132 130 113 114 74 43 32